Date String (YYYY-MM-DD hh:mm:ss) UTC,Instrument flags,Ambient pressure (hPa),Sample flow (lpm),Bypass flow (lpm),Sample temperature (°C),Ambient temperature (°C),ASC tube jacket temperature (°C),LED temperature (°C),Box temperature (°C),Sample RH (%),Span deviation,Mass concentration (μg/m³),Mass concentration (μg/m³),Mass concentration (μg/m³)
DateTimeUTC,F1_M11,P_M11,Q1_M11,Q2_M11,T1_M11,T2_M11,T3_M11,T4_M11,T5_M11,U1_M11,ZSPAN_M11,X0_M11,X2_M11,X1_M11
2022-06-05 18:00:00,,0819.9,5.00,0.00,29.3,28.3,00.0,38.0,31.3,22.1,0000.0,0012.38,0004.43,0003.21
2022-06-05 18:01:00,,0819.9,5.01,0.00,29.3,28.4,00.0,38.1,31.3,23.0,0000.0,0012.28,0004.45,0003.22
2022-06-05 18:02:00,,0819.9,4.99,0.00,29.3,28.5,00.0,38.1,31.3,22.6,0000.0,0012.51,0004.38,0003.24
2022-06-05 18:03:00,,0819.9,5.00,0.00,29.4,28.4,00.0,38.1,31.3,21.4,0000.0,0012.80,0004.41,0003.25
2022-06-05 18:04:00,,0819.8,4.98,0.00,29.4,27.8,00.0,38.0,31.2,22.6,0000.0,0012.93,0004.44,0003.25
2022-06-05 18:05:00,,0819.8,5.00,0.00,29.3,27.1,00.0,38.0,31.0,22.0,0000.0,0012.56,0004.48,0003.27
2022-06-05 18:06:00,,0819.8,4.99,0.00,29.2,26.9,00.0,38.0,30.9,22.1,0000.0,0012.68,0004.46,0003.26
2022-06-05 18:07:00,,0819.8,5.01,0.00,29.1,27.0,00.0,38.0,30.9,21.8,0000.0,0012.93,0004.45,0003.26
2022-06-05 18:08:00,,0819.8,4.99,0.00,29.1,27.1,00.0,38.0,30.9,22.4,0000.0,0013.50,0004.48,0003.27
2022-06-05 18:09:00,,0819.8,5.00,0.00,29.1,27.3,00.0,38.0,30.9,21.5,0000.0,0013.55,0004.45,0003.26
2022-06-05 18:10:00,,0819.8,5.00,0.00,29.1,27.4,00.0,38.0,31.0,21.7,0000.0,0013.57,0004.47,0003.25
2022-06-05 18:11:00,,0819.8,5.00,0.00,29.1,27.6,00.0,38.0,31.0,22.3,0000.0,0013.41,0004.46,0003.24
2022-06-05 18:12:00,,0819.8,5.00,0.00,29.1,27.7,00.0,38.0,31.0,22.5,0000.0,0013.10,0004.38,0003.24
2022-06-05 18:13:00,,0819.8,4.99,0.00,29.1,27.9,00.0,38.0,31.1,21.8,0000.0,0012.67,0004.37,0003.23
2022-06-05 18:14:00,,0819.7,5.00,0.00,29.2,28.0,00.0,38.0,31.1,21.4,0000.0,0012.52,0004.38,0003.23
2022-06-05 18:15:00,,0819.7,5.00,0.00,29.2,28.1,00.0,38.0,31.2,22.7,0000.0,0012.09,0004.36,0003.23
2022-06-05 18:16:00,,0819.7,5.00,0.00,29.2,28.2,00.0,38.0,31.2,21.4,0000.0,0012.40,0004.36,0003.21
2022-06-05 18:17:00,,0819.7,5.00,0.00,29.3,28.3,00.0,38.0,31.2,20.2,0000.0,0012.34,0004.38,0003.20
2022-06-05 18:18:00,,0819.7,4.99,0.00,29.3,28.4,00.0,38.1,31.3,20.4,0000.0,0012.32,0004.37,0003.19
2022-06-05 18:19:00,,0819.7,5.01,0.00,29.3,28.5,00.0,38.1,31.3,19.4,0000.0,0011.76,0004.38,0003.18
2022-06-05 18:20:00,,0819.7,5.01,0.00,29.4,28.5,00.0,38.1,31.3,19.7,0000.0,0012.06,0004.44,0003.17
2022-06-05 18:21:00,,0819.7,5.01,0.00,29.3,27.8,00.0,38.0,31.2,20.5,0000.0,0012.62,0004.36,0003.16
2022-06-05 18:22:00,,0819.6,4.99,0.00,29.3,27.1,00.0,38.0,31.0,19.9,0000.0,0012.59,0004.33,0003.16
2022-06-05 18:23:00,,0819.6,5.01,0.00,29.2,26.9,00.0,38.0,30.9,20.8,0000.0,0012.99,0004.34,0003.14
2022-06-05 18:24:00,,0819.6,4.99,0.00,29.1,27.0,00.0,38.0,30.9,21.4,0000.0,0013.10,0004.37,0003.12
2022-06-05 18:25:00,,0819.5,5.01,0.00,29.1,27.1,00.0,37.9,30.9,19.9,0000.0,0012.93,0004.36,0003.08
2022-06-05 18:26:00,,0819.5,4.99,0.00,29.1,27.3,00.0,37.9,30.9,20.6,0000.0,0012.33,0004.35,0003.05
2022-06-05 18:27:00,,0819.6,4.98,0.00,29.1,27.4,00.0,37.9,31.0,21.5,0000.0,0012.05,0004.36,0003.03
2022-06-05 18:28:00,,0819.6,5.00,0.00,29.1,27.6,00.0,37.9,31.0,21.5,0000.0,0012.60,0004.35,0003.02
2022-06-05 18:29:00,,0819.6,5.01,0.00,29.1,27.7,00.0,38.0,31.0,22.2,0000.0,0012.73,0004.36,0003.01
2022-06-05 18:30:00,,0819.6,5.01,0.00,29.1,27.9,00.0,38.0,31.1,20.4,0000.0,0012.85,0004.35,0003.01
2022-06-05 18:31:00,,0819.6,5.00,0.00,29.2,28.0,00.0,38.0,31.1,21.0,0000.0,0012.87,0004.32,0003.01
2022-06-05 18:32:00,,0819.6,5.00,0.00,29.2,28.1,00.0,38.0,31.2,21.6,0000.0,0012.50,0004.34,0003.01
2022-06-05 18:33:00,,0819.5,5.01,0.00,29.2,28.2,00.0,38.0,31.2,19.8,0000.0,0011.99,0004.33,0003.00
2022-06-05 18:34:00,,0819.5,5.01,0.00,29.3,28.3,00.0,38.0,31.3,20.7,0000.0,0011.51,0004.38,0003.00
2022-06-05 18:35:00,,0819.5,5.00,0.00,29.3,28.4,00.0,38.0,31.3,20.9,0000.0,0012.80,0004.39,0003.00
2022-06-05 18:36:00,,0819.6,5.01,0.00,29.3,28.5,00.0,38.1,31.3,19.3,0000.0,0013.22,0004.37,0003.00
2022-06-05 18:37:00,,0819.5,5.00,0.00,29.4,28.3,00.0,38.1,31.3,19.4,0000.0,0013.26,0004.34,0002.99
2022-06-05 18:38:00,,0819.5,5.00,0.00,29.3,27.4,00.0,38.0,31.0,19.0,0000.0,0013.33,0004.31,0003.00
2022-06-05 18:39:00,,0819.5,5.01,0.00,29.2,26.9,00.0,38.0,30.9,18.7,0000.0,0012.73,0004.26,0003.01
2022-06-05 18:40:00,,0819.5,5.00,0.00,29.2,26.9,00.0,38.0,30.9,19.0,0000.0,0012.71,0004.24,0002.98
2022-06-05 18:41:00,,0819.5,4.99,0.00,29.1,27.0,00.0,37.9,30.9,18.8,0000.0,0012.74,0004.21,0002.94
2022-06-05 18:42:00,,0819.5,5.01,0.00,29.1,27.1,00.0,37.9,30.9,18.8,0000.0,0013.32,0004.21,0002.91
2022-06-05 18:43:00,,0819.5,5.01,0.00,29.1,27.3,00.0,37.9,30.9,19.0,0000.0,0012.80,0004.20,0002.89
2022-06-05 18:44:00,,0819.4,5.00,0.00,29.1,27.5,00.0,37.9,31.0,19.3,0000.0,0012.99,0004.23,0002.86
2022-06-05 18:45:00,,0819.5,5.00,0.00,29.1,27.7,00.0,37.9,31.0,20.2,0000.0,0012.77,0004.20,0002.85
2022-06-05 18:46:00,,0819.4,4.99,0.00,29.1,27.8,00.0,38.0,31.1,18.3,0000.0,0011.51,0004.21,0002.85
2022-06-05 18:47:00,,0819.4,5.00,0.00,29.2,28.0,00.0,38.0,31.1,19.5,0000.0,0011.01,0004.20,0002.83
2022-06-05 18:48:00,,0819.5,5.00,0.00,29.2,28.1,00.0,38.0,31.2,20.1,0000.0,0010.93,0004.21,0002.82
2022-06-05 18:49:00,,0819.5,5.00,0.00,29.2,28.2,00.0,38.0,31.2,21.0,0000.0,0010.86,0004.20,0002.78
2022-06-05 18:50:00,,0819.5,5.00,0.00,29.3,28.3,00.0,38.0,31.3,19.6,0000.0,0011.84,0004.20,0002.74
2022-06-05 18:51:00,,0819.5,5.01,0.00,29.3,28.4,00.0,38.0,31.3,19.1,0000.0,0011.71,0004.19,0002.74
2022-06-05 18:52:00,,0819.5,5.00,0.00,29.3,28.5,00.0,38.1,31.3,18.6,0000.0,0011.82,0004.24,0002.76
2022-06-05 18:53:00,,0819.5,5.00,0.00,29.4,28.3,00.0,38.1,31.3,19.0,0000.0,0011.87,0004.23,0002.79
2022-06-05 18:54:00,,0819.5,5.00,0.00,29.3,27.4,00.0,38.0,31.1,18.1,0000.0,0011.92,0004.23,0002.78
2022-06-05 18:55:00,,0819.5,5.01,0.00,29.2,26.9,00.0,38.0,30.9,17.7,0000.0,0011.81,0004.22,0002.79
2022-06-05 18:56:00,,0819.4,4.99,0.00,29.2,26.9,00.0,37.9,30.9,17.1,0000.0,0011.95,0004.21,0002.79
2022-06-05 18:57:00,,0819.4,5.01,0.00,29.1,27.0,00.0,37.9,30.9,19.3,0000.0,0011.95,0004.22,0002.79
2022-06-05 18:58:00,,0819.5,5.00,0.00,29.1,27.2,00.0,37.9,30.9,19.2,0000.0,0012.16,0004.19,0002.81
2022-06-05 18:59:00,,0819.5,5.00,0.00,29.1,27.4,00.0,37.9,30.9,19.4,0000.0,0012.53,0004.21,0002.82
